, FL

(GMT )
Crestview

Weather History for KEGI - July, 2013

Change the Weather History Date:

Wednesday, July 3, 2013

  Actual Average Record
Temperature  
Mean Temperature 73 °F -  
Max Temperature 75 °F - - ()
Min Temperature 71 °F - - ()
Cooling Degree Days 8    
Growing Degree Days 23 (Base 50)    
Moisture  
Dew Point 72 °F    
Average Humidity 95    
Maximum Humidity 100    
Minimum Humidity 88    
Precipitation  
Precipitation 0.55 in - - ()
Sea Level Pressure  
Sea Level Pressure 30.02 in    
Wind  
Wind Speed 5 mph (East)    
Max Wind Speed 12 mph    
Max Gust Speed 17 mph    
Visibility 9 miles    
Events Rain , Thunderstorm    
Averages and records for this station are not official NWS values.
T = Trace of Precipitation, MM = Missing Value Source: NWS Daily Summary

Daily Weather History Graph

Daily Weather History Graph

Search for Another Location

Airport or City:

Trip Planner

Search our weather history database for the weather conditions in past years. The results will help you decide how hot, cold, wet, or windy it might be!

Date:

Astronomy

Jul. 03, 2013 Rise Set
Actual Time 5:47 AM CDT 7:52 PM CDT
Civil Twilight 5:20 AM CDT 8:20 PM CDT
Nautical Twilight 4:46 AM CDT 8:53 PM CDT
Astronomical Twilight 4:10 AM CDT 9:29 PM CDT
Moon 2:17 AM CDT (7/3) 4:08 PM CDT (7/3)
Length of Visible Light 14h 59m
Length of Day
14h 04m
Waning Crescent, 18% of the Moon is Illuminated
Jul 3
Waning Crescent
Jul 8
New
Jul 15
First Quarter
Jul 22
Full
Jul 29
Last Quarter

Hourly Weather History & Observations

Time (CDT) Temp. Dew Point Humidity Pressure Visibility Wind Dir Wind Speed Gust Speed Precip Events Conditions
12:58 AM 74.1 °F 72.3 °F 94% 30.02 in 10.0 mi ENE 4.6 mph - N/A   Clear
1:31 AM 75.2 °F 73.4 °F 94% 30.01 in 10.0 mi East 5.8 mph - N/A Rain Light Rain
1:49 AM 75.2 °F 73.4 °F 94% 30.01 in 10.0 mi ESE 5.8 mph - N/A   Partly Cloudy
1:58 AM 75.7 °F 72.3 °F 89% 30.00 in 10.0 mi ESE 4.6 mph - 0.00 in   Partly Cloudy
2:58 AM 73.9 °F 71.1 °F 91% 29.99 in 10.0 mi North 1.2 mph - N/A   Clear
3:58 AM 73.0 °F 71.4 °F 95% 29.99 in 10.0 mi North 4.6 mph - N/A   Scattered Clouds
4:34 AM 73.4 °F 71.6 °F 94% 30.00 in 10.0 mi NE 4.6 mph - N/A Rain Light Rain
4:50 AM 73.4 °F 71.6 °F 94% 30.00 in 10.0 mi North 3.5 mph - N/A   Partly Cloudy
4:58 AM 72.9 °F 72.1 °F 98% 30.01 in 10.0 mi NNE 4.6 mph - 0.00 in   Partly Cloudy
5:28 AM 73.4 °F 71.6 °F 94% 30.00 in 10.0 mi Calm Calm - N/A   Mostly Cloudy
5:32 AM 73.4 °F 71.6 °F 94% 30.00 in 10.0 mi NNE 1.2 mph - N/A Rain Light Rain
5:36 AM 73.4 °F 71.6 °F 94% 30.01 in 8.0 mi NE 3.5 mph - N/A Rain Light Rain
5:41 AM 73.4 °F 73.4 °F 100% 30.01 in 8.0 mi ENE 4.6 mph - N/A Rain Light Rain
5:46 AM 73.4 °F 73.4 °F 100% 30.02 in 10.0 mi East 5.8 mph - N/A Rain Light Rain
5:51 AM 73.4 °F 73.4 °F 100% 30.02 in 10.0 mi East 9.2 mph - N/A   Light Drizzle
5:54 AM 73.4 °F 73.4 °F 100% 30.01 in 10.0 mi ENE 8.1 mph - N/A Thunderstorm Scattered Clouds
5:58 AM 73.4 °F 72.9 °F 98% 30.01 in 10.0 mi East 6.9 mph - 0.00 in Thunderstorm Scattered Clouds
5:59 AM 73.4 °F 73.4 °F 100% 30.02 in 10.0 mi East 6.9 mph - N/A Rain , Thunderstorm Light Rain
6:18 AM 73.4 °F 71.6 °F 94% 30.03 in 10.0 mi East 3.5 mph - N/A Thunderstorm Light Drizzle
6:23 AM 73.4 °F 71.6 °F 94% 30.03 in 10.0 mi East 4.6 mph - N/A Rain , Thunderstorm Light Thunderstorms and Rain
6:33 AM 73.4 °F 71.6 °F 94% 30.02 in 2.0 mi NNE 3.5 mph - N/A Rain , Thunderstorm Heavy Thunderstorms and Rain
6:38 AM 73.4 °F 71.6 °F 94% 30.01 in 2.0 mi ENE 4.6 mph - N/A Rain , Thunderstorm Heavy Thunderstorms and Rain
6:40 AM 73.4 °F 71.6 °F 94% 30.02 in 2.0 mi Variable 2.3 mph - N/A Rain Rain
6:45 AM 73.4 °F 71.6 °F 94% 30.02 in 3.0 mi Variable 2.3 mph - N/A Rain Rain
6:47 AM 73.4 °F 71.6 °F 94% 30.02 in 4.0 mi East 1.2 mph - N/A Rain , Thunderstorm Light Thunderstorms and Rain
6:52 AM 73.4 °F 71.6 °F 94% 30.01 in 6.0 mi Variable 2.3 mph - N/A Rain , Thunderstorm Light Thunderstorms and Rain
6:58 AM 72.7 °F 72.1 °F 98% 30.01 in 8.0 mi East 2.3 mph - 0.11 in Rain , Thunderstorm Light Thunderstorms and Rain
7:02 AM 73.4 °F 71.6 °F 94% 30.01 in 10.0 mi East 2.3 mph - N/A Rain , Thunderstorm Light Rain
7:13 AM 73.4 °F 71.6 °F 94% 30.01 in 10.0 mi ENE 5.8 mph - N/A   Clear
7:50 AM 73.4 °F 71.6 °F 94% 30.03 in 10.0 mi ENE 4.6 mph - N/A   Light Drizzle
7:58 AM 72.7 °F 71.4 °F 96% 30.04 in 10.0 mi NE 3.5 mph - 0.00 in Rain Light Rain
8:06 AM 73.4 °F 71.6 °F 94% 30.03 in 10.0 mi East 3.5 mph - N/A   Partly Cloudy
8:10 AM 73.4 °F 71.6 °F 94% 30.03 in 10.0 mi East 3.5 mph - N/A   Light Drizzle
8:22 AM 73.4 °F 71.6 °F 94% 30.03 in 10.0 mi ENE 4.6 mph - N/A   Scattered Clouds
8:55 AM 73.2 °F 71.6 °F 95% 30.04 in 10.0 mi East 4.6 mph - 0.00 in   Light Drizzle
9:31 AM 73.4 °F 71.6 °F 94% 30.03 in 10.0 mi ENE 5.8 mph - N/A   Mostly Cloudy
9:55 AM 73.0 °F 71.8 °F 96% 30.04 in 10.0 mi ENE 4.6 mph - 0.00 in   Light Drizzle
10:42 AM 71.6 °F 71.6 °F 100% 30.06 in 10.0 mi ENE 6.9 mph - N/A Rain Light Rain
10:55 AM 72.3 °F 71.2 °F 96% 30.06 in 5.0 mi East 6.9 mph - 0.05 in Rain Light Rain
11:55 AM 72.9 °F 71.2 °F 95% 30.06 in 10.0 mi East 8.1 mph - 0.01 in Rain Light Rain
12:55 PM 72.5 °F 71.6 °F 97% 30.04 in 10.0 mi East 5.8 mph - 0.07 in Rain Light Rain
1:41 PM 73.4 °F 71.6 °F 94% 30.04 in 10.0 mi East 6.9 mph - N/A   Mostly Cloudy
1:55 PM 73.6 °F 71.4 °F 93% 30.04 in 10.0 mi East 6.9 mph - 0.01 in Rain Light Rain
2:55 PM 72.1 °F 70.9 °F 96% 30.06 in 4.0 mi SE 8.1 mph - 0.09 in Rain Rain
3:19 PM 71.6 °F 71.6 °F 100% 30.02 in 3.0 mi ESE 6.9 mph - N/A Rain Rain
3:43 PM 71.6 °F 71.6 °F 100% 30.00 in 4.0 mi ESE 9.2 mph 17.3 mph N/A Rain Heavy Rain
3:55 PM 71.4 °F 70.9 °F 98% 30.00 in 5.0 mi East 8.1 mph 17.3 mph 0.20 in Rain Rain
4:33 PM 71.6 °F 71.6 °F 100% 29.97 in 10.0 mi ESE 11.5 mph - N/A   Overcast
4:44 PM 71.6 °F 71.6 °F 100% 29.99 in 10.0 mi SE 8.1 mph - N/A   Light Drizzle
4:48 PM 71.6 °F 71.6 °F 100% 29.99 in 10.0 mi ESE 4.6 mph - N/A   Overcast
4:55 PM 72.5 °F 71.1 °F 95% 30.00 in 10.0 mi ESE 2.3 mph - 0.01 in Rain Light Rain
5:18 PM 73.4 °F 71.6 °F 94% 29.99 in 10.0 mi ESE 6.9 mph - N/A   Overcast
5:41 PM 73.4 °F 69.8 °F 88% 29.99 in 10.0 mi SE 5.8 mph - N/A   Overcast
5:55 PM 73.6 °F 70.5 °F 90% 30.00 in 10.0 mi Variable 4.6 mph - 0.00 in   Overcast
6:23 PM 73.4 °F 69.8 °F 88% 29.98 in 10.0 mi Variable 4.6 mph - N/A   Overcast
6:55 PM 73.9 °F 70.2 °F 88% 30.00 in 10.0 mi East 2.3 mph - N/A   Mostly Cloudy
7:16 PM 73.4 °F 71.6 °F 94% 30.01 in 10.0 mi East 4.6 mph - N/A   Mostly Cloudy
7:55 PM 73.0 °F 71.1 °F 93% 30.03 in 10.0 mi ENE 3.5 mph - N/A   Mostly Cloudy
8:55 PM 72.0 °F 69.8 °F 93% 30.03 in 10.0 mi NE 5.8 mph - N/A   Overcast
9:39 PM 71.6 °F 69.8 °F 94% 30.03 in 10.0 mi East 6.9 mph - N/A   Overcast
9:55 PM 72.1 °F 70.7 °F 95% 30.04 in 10.0 mi East 6.9 mph - N/A   Overcast
10:55 PM 73.2 °F 71.1 °F 93% 30.03 in 10.0 mi East 6.9 mph - N/A   Overcast
11:50 PM 73.4 °F 71.6 °F 94% 30.02 in 10.0 mi East 6.9 mph - N/A Rain Light Rain
11:55 PM 73.0 °F 71.6 °F 95% 30.03 in 10.0 mi East 5.8 mph - N/A Rain Light Rain
11:57 PM 73.4 °F 71.6 °F 94% 30.02 in 10.0 mi East 6.9 mph - N/A   Light Drizzle